Theta_e
330 330 330 331 331 332 332 332 333 332 332 332 332 332 333 333 333 334 334 335 335 336 336 334 332 330 330 329 329 328 327 326 326 325 325 326 328 331 332 330 327 326 327 325 323 322 323 324 320 324 331 329 330 332 332 333 332 331 331 329 327 327
330 330 329 330 331 331 332 332 331 331 332 333 334 334 334 334 335 335 335 334 334 335 334 333 332 330 330 329 328 327 326 326 325 323 322 322 325 329 330 330 328 327 327 326 324 322 323 323 323 327 330 327 329 332 332 331 332 331 330 327 327 326
330 330 329 330 330 332 333 332 332 331 333 334 335 336 335 336 336 336 335 334 334 333 332 333 331 330 330 329 328 327 326 324 323 320 319 319 321 325 328 329 328 327 328 328 326 323 323 323 324 328 328 327 329 333 331 331 331 330 329 327 327 325
331 331 330 330 330 332 333 331 332 333 334 335 337 337 336 336 336 335 335 334 333 332 332 332 332 332 332 330 329 329 327 324 322 321 320 320 320 324 327 328 328 326 327 327 326 323 322 322 323 325 326 328 331 332 331 331 331 329 329 327 325 323
332 332 331 332 330 331 333 332 333 334 335 336 338 337 336 336 336 336 335 334 333 332 331 331 333 334 333 331 329 330 328 324 323 323 322 323 323 324 326 327 327 326 325 325 324 324 324 323 322 325 329 330 331 331 331 331 330 329 328 327 324 322
334 335 334 333 332 332 332 333 334 335 336 337 338 338 337 337 336 336 335 333 332 332 332 332 333 334 334 332 330 331 331 327 325 326 325 325 327 328 326 325 325 325 324 323 323 325 327 326 324 326 330 331 330 330 331 330 330 330 329 328 326 322
337 337 338 336 335 334 333 334 335 336 338 339 339 338 338 338 338 337 336 334 333 333 333 333 334 334 334 333 331 332 332 329 327 327 328 328 329 332 330 328 326 324 324 323 324 327 328 328 326 325 327 330 330 330 331 331 330 330 329 329 326 322
340 340 340 339 337 336 335 335 337 338 338 338 338 338 337 338 338 336 336 336 335 334 334 334 334 334 333 333 332 333 333 331 328 328 330 330 330 332 332 331 328 325 325 326 328 330 330 329 328 327 327 328 330 331 331 331 330 330 330 329 327 322
341 342 341 340 339 338 337 337 338 339 339 338 338 337 336 336 336 336 336 337 337 336 335 335 334 334 334 334 334 334 333 332 331 329 330 332 332 332 331 331 330 328 328 329 330 331 330 330 328 328 328 329 329 331 331 331 331 331 330 330 330 325
342 342 342 341 340 340 339 338 338 338 339 339 338 338 337 335 334 335 336 337 337 336 335 335 334 334 334 334 334 334 334 333 333 332 331 332 332 332 331 331 331 330 330 330 330 331 331 330 329 328 329 329 329 329 331 332 332 332 331 331 331 328
342 342 341 341 341 340 339 338 338 338 339 339 338 338 337 335 334 336 337 336 335 335 335 334 335 334 334 334 333 333 334 333 333 333 332 332 333 332 331 331 331 331 331 330 330 330 330 330 330 329 329 329 328 329 330 331 332 331 331 331 330 329
342 342 340 340 340 339 339 338 338 338 339 339 338 338 338 336 335 336 336 336 335 335 335 334 334 334 334 333 333 333 333 333 333 333 332 332 333 332 331 331 331 330 331 331 330 330 330 330 330 329 328 329 329 329 330 331 332 331 331 331 331 330
340 340 339 337 338 337 337 338 337 337 337 338 337 337 337 336 335 335 336 335 335 335 335 334 334 334 333 332 333 333 333 333 332 332 333 333 333 333 332 331 330 331 331 331 330 330 330 330 329 330 329 329 329 329 329 331 331 331 331 331 331 331
339 338 337 336 337 336 336 336 335 335 335 336 335 335 335 335 335 335 335 334 335 335 335 335 334 333 333 333 333 334 334 333 333 332 333 334 334 333 332 330 330 331 331 330 330 330 330 330 330 330 330 329 330 330 329 330 330 330 331 331 331 330
337 336 335 335 335 335 336 334 334 334 334 334 334 334 333 333 334 335 335 334 334 334 334 334 333 333 332 333 333 334 335 334 333 333 333 334 334 332 332 331 330 330 330 330 330 330 329 329 330 330 330 330 330 330 330 329 329 330 330 331 331 330
336 334 334 333 332 332 334 334 334 333 333 333 333 333 333 333 334 335 334 333 333 334 333 334 333 332 333 333 333 333 335 334 333 334 333 333 334 333 332 331 329 329 329 329 329 329 329 329 330 329 330 330 330 329 329 329 329 329 329 330 331 330
333 333 332 331 330 330 332 333 333 332 332 332 332 332 332 332 333 334 334 332 333 333 333 334 333 333 333 333 333 333 335 334 333 334 332 333 334 333 332 331 330 329 329 329 329 330 330 329 329 328 328 328 328 327 328 328 328 328 328 329 330 330
331 331 330 330 329 330 330 331 331 332 331 331 331 332 332 332 333 334 333 332 332 332 332 333 332 332 332 333 334 334 334 334 333 333 333 333 334 333 332 332 331 329 329 329 329 330 330 329 328 327 326 326 325 325 326 326 326 326 327 327 328 328
329 329 328 328 329 329 328 328 330 332 331 330 330 330 331 331 332 332 331 331 331 331 331 332 332 331 332 333 334 333 333 333 333 334 334 334 334 333 332 332 331 330 330 330 330 330 329 328 328 327 326 326 325 324 324 324 324 325 325 326 326 326
328 327 327 327 327 327 327 328 330 331 330 330 330 330 330 330 330 330 330 330 331 331 331 331 332 331 332 333 332 332 332 332 333 334 333 334 333 332 333 332 331 330 330 331 331 330 329 329 329 329 328 327 326 325 324 323 322 322 322 324 325 326
327 326 327 326 326 326 326 327 329 331 330 329 329 329 329 329 329 329 330 330 330 330 330 330 329 329 330 331 330 331 332 332 333 333 333 333 332 332 333 332 330 330 330 330 331 330 330 331 329 329 329 328 327 325 323 321 320 320 320 321 324 325
326 326 326 325 324 324 323 325 328 330 329 328 328 327 328 329 329 328 328 328 328 327 328 329 329 328 328 329 329 330 331 331 331 332 333 333 332 332 332 332 331 330 330 329 329 328 329 329 329 329 328 327 326 325 323 322 322 323 321 320 321 324
327 326 325 324 324 322 322 324 326 328 329 328 327 327 326 326 326 326 325 324 324 324 325 327 327 327 326 326 327 328 329 330 329 330 331 332 332 331 331 331 330 330 329 328 327 326 326 328 328 328 327 326 327 327 325 324 324 324 324 322 320 322
328 327 325 323 323 323 322 324 327 328 327 325 324 324 323 323 323 323 322 322 322 322 323 324 325 327 326 324 326 328 328 328 328 329 330 331 332 331 330 330 330 330 330 328 326 326 327 328 328 328 328 326 325 326 328 327 325 324 322 322 321 322
327 327 325 323 323 324 323 324 326 324 323 321 320 321 321 321 322 323 322 322 322 321 322 323 325 327 326 324 326 328 328 327 328 328 329 329 331 331 330 329 329 329 328 328 327 327 328 328 328 327 327 326 325 327 330 327 326 326 322 321 323 322
325 326 325 324 325 325 323 323 324 322 320 320 321 320 320 321 322 322 322 321 321 321 321 322 323 324 325 325 326 326 326 326 326 327 328 327 329 330 330 329 329 329 328 327 327 327 328 328 328 327 326 326 327 328 329 327 327 327 325 323 323 323
324 326 325 325 325 324 323 323 322 321 321 320 320 320 320 321 322 322 321 321 320 320 321 320 320 321 323 325 324 322 322 323 324 326 326 327 328 329 329 328 328 328 328 328 327 328 328 328 328 327 327 326 326 326 326 327 328 329 330 328 325 324
324 326 324 323 323 323 322 322 322 320 320 319 319 320 321 322 322 321 320 320 320 320 320 320 319 319 319 321 320 319 320 322 323 325 325 326 326 326 326 326 327 327 328 328 327 327 327 327 327 327 327 327 326 326 325 326 326 326 329 330 328 326
325 326 322 322 322 322 322 322 321 320 319 320 320 321 321 322 321 321 320 320 320 320 320 320 319 317 316 318 319 319 320 321 322 323 323 324 324 324 324 324 325 325 325 326 326 326 326 325 326 326 326 326 326 326 326 325 325 325 326 328 330 326
325 326 322 321 322 321 321 321 320 319 319 320 321 321 321 321 321 321 320 320 319 319 318 318 317 315 314 316 318 318 318 319 321 321 321 322 322 323 323 323 324 324 324 324 323 322 321 321 322 324 325 326 326 326 325 322 322 323 323 322 325 323
326 325 321 321 320 320 320 319 318 319 319 320 321 320 320 321 321 321 320 318 317 315 314 315 315 314 312 313 314 313 312 314 317 319 319 320 320 321 321 321 322 322 322 322 319 317 316 316 318 321 323 323 322 321 319 317 316 317 317 317 319 318
326 325 323 321 319 320 319 317 318 319 320 321 320 319 319 321 321 320 319 316 314 313 313 313 313 313 312 312 312 311 310 311 314 315 315 316 316 317 318 318 319 321 321 320 317 315 315 315 317 318 318 318 317 316 315 314 313 313 313 313 315 315
326 325 324 322 320 320 318 316 318 321 320 320 320 319 320 321 321 320 317 314 313 314 314 313 312 312 312 312 311 311 311 313 313 311 311 311 312 312 311 310 311 314 315 316 314 313 313 313 314 315 314 313 313 312 312 312 312 313 313 313 313 313
326 325 324 323 320 318 316 316 320 322 320 320 319 318 320 321 321 319 316 314 314 313 313 312 310 310 311 311 311 312 313 314 313 311 310 310 309 307 306 304 304 304 306 308 308 309 310 312 312 312 312 311 311 310 311 311 311 312 312 312 312 312
325 325 324 322 320 317 315 317 320 321 320 319 318 318 320 321 320 318 314 313 313 311 309 309 308 309 310 310 311 313 314 313 312 312 311 310 307 306 305 303 302 302 302 303 304 306 309 310 310 309 308 307 308 309 309 308 308 309 310 312 311 311
325 324 324 323 323 319 316 318 320 320 320 319 317 318 320 321 320 316 313 312 311 309 308 307 307 309 310 310 310 311 312 312 313 313 313 313 310 308 306 304 303 304 304 303 303 305 308 309 309 308 307 307 305 306 307 305 304 304 306 309 311 311
325 325 324 324 324 320 317 318 319 321 320 319 318 318 319 321 319 316 315 314 311 308 307 307 308 309 310 309 307 308 310 312 314 314 313 313 313 310 307 305 305 306 306 306 304 304 306 308 309 309 309 309 308 306 307 307 306 305 305 307 308 309
Wind_Speed
17 16 17 17 18 18 19 18 18 18 17 17 17 16 16 15 14 14 13 13 13 12 12 11 10 9 9 9 8 8 7 7 6 6 5 5 6 6 7 7 6 6 5 4 4 5 5 8 10 12 10 8 8 8 12 17 15 12 10 8 6 5
16 16 16 16 17 17 17 17 17 17 16 16 15 15 15 14 14 14 14 13 13 13 13 12 10 10 10 9 8 7 7 6 6 5 5 4 5 6 7 7 7 6 6 5 4 5 5 8 11 12 10 7 7 7 10 16 14 11 9 8 6 4
17 16 16 16 16 17 17 17 17 17 16 16 15 15 15 15 15 14 14 13 14 13 13 12 11 9 9 9 8 7 6 6 6 6 5 4 5 6 7 8 8 6 6 6 5 4 4 7 11 11 9 6 6 7 9 14 12 10 9 7 6 4
17 17 17 17 17 17 17 17 17 17 16 16 16 15 15 14 14 14 14 13 14 13 12 12 10 9 8 8 8 7 7 6 6 6 5 5 5 6 7 8 9 7 7 7 6 5 4 6 9 10 9 7 6 6 7 12 12 9 9 7 6 5
17 17 18 18 19 18 18 18 17 17 16 17 16 16 15 14 14 14 13 13 13 13 13 12 11 10 9 9 9 8 8 7 7 6 5 4 5 6 7 8 9 9 8 8 7 7 5 5 8 9 8 7 5 4 5 12 12 9 7 6 6 6
18 18 18 19 19 19 19 18 18 18 17 17 16 16 15 14 14 14 14 14 13 12 13 13 11 10 11 11 11 10 9 8 7 6 6 5 5 5 6 7 8 9 8 8 7 6 5 4 7 8 7 6 3 2 5 12 12 9 7 6 6 6
19 20 19 18 18 18 19 19 18 18 18 17 17 16 15 14 14 14 15 15 14 13 13 13 12 11 12 13 11 10 10 9 9 8 7 6 6 5 4 6 7 8 7 7 7 5 4 4 7 8 6 5 3 2 5 12 12 9 8 7 7 5
21 21 20 19 19 19 19 19 19 18 18 18 17 16 16 15 15 15 16 16 15 14 13 13 13 13 14 13 12 11 11 11 10 9 8 7 7 5 4 5 6 8 8 7 5 4 3 3 6 8 5 4 6 7 7 11 11 8 8 7 6 5
23 22 21 20 20 19 19 20 19 18 19 18 17 17 16 16 16 16 16 16 16 15 15 14 14 14 15 14 13 13 12 12 12 10 9 8 7 6 6 6 7 8 9 7 5 4 3 2 5 7 4 3 9 10 7 10 11 8 8 7 5 6
23 22 22 21 20 20 20 20 20 18 18 18 18 18 18 18 18 17 15 15 16 16 16 15 15 15 15 14 13 13 13 13 12 12 12 11 8 7 7 8 7 9 9 8 7 5 5 5 5 6 5 5 8 8 7 10 11 9 8 7 6 6
23 22 21 20 20 20 18 19 19 17 16 16 17 19 19 19 19 17 16 15 17 17 17 16 15 16 15 12 12 12 13 13 13 14 14 12 10 9 9 9 8 9 8 7 7 7 8 7 5 7 8 6 6 6 8 10 10 9 9 8 7 6
22 21 19 19 18 18 17 17 17 16 16 15 16 18 17 17 17 17 17 16 17 18 17 16 16 15 14 12 12 12 11 11 13 14 14 13 12 12 10 9 9 10 8 8 9 8 9 9 7 7 8 7 5 5 8 11 10 8 8 8 7 6
20 19 18 18 17 16 15 15 15 15 15 14 14 16 16 15 15 16 16 16 18 17 16 16 15 14 14 13 12 13 12 11 12 14 14 13 13 12 10 9 10 11 10 10 10 9 10 10 8 8 7 7 6 4 5 10 10 8 8 7 8 8
18 17 16 16 15 14 14 13 12 11 11 11 12 14 14 14 13 14 16 16 17 16 16 17 16 15 15 14 13 14 14 12 12 14 14 14 13 12 11 10 12 13 12 10 9 8 9 10 8 8 6 5 6 4 4 6 6 7 8 8 9 9
18 16 15 14 13 13 14 12 10 8 9 10 10 13 14 13 13 14 14 14 15 16 17 18 18 17 15 14 14 15 15 13 13 14 14 14 13 12 12 12 12 13 13 11 10 9 9 10 9 9 7 5 5 5 4 5 6 6 7 9 10 9
20 19 17 15 13 13 14 12 10 8 8 8 10 13 14 14 13 13 13 13 14 15 17 18 18 17 15 14 15 14 13 12 12 13 14 15 14 13 13 12 12 13 14 12 11 10 9 10 10 8 7 5 5 4 4 4 5 7 7 8 9 10
23 21 18 15 14 14 14 13 12 10 8 7 9 11 12 12 11 11 12 12 13 14 15 16 17 16 15 15 14 13 12 12 12 13 13 13 15 15 13 12 11 13 15 13 11 11 11 10 9 7 6 5 4 3 3 4 3 5 7 7 7 7
24 21 18 16 15 15 15 14 12 11 9 7 7 8 9 10 10 10 11 11 11 13 14 15 14 14 15 14 12 11 13 14 14 13 12 12 14 15 13 11 10 13 15 14 13 12 11 9 8 6 5 4 3 2 2 3 3 2 3 5 6 6
25 22 19 17 16 15 15 14 13 13 12 11 11 9 8 8 8 8 8 8 9 10 12 12 11 11 12 11 11 12 14 14 13 12 11 12 14 14 13 10 11 15 16 14 12 11 10 9 8 6 5 4 2 1 1 1 2 2 3 3 3 3
24 22 20 20 19 18 17 16 16 15 15 15 15 14 12 10 8 6 5 5 6 7 8 9 9 9 9 8 10 11 12 12 11 10 9 12 13 12 12 11 12 15 15 13 12 10 9 9 8 7 5 3 2 0 0 1 2 2 3 3 4 4
23 23 23 23 22 21 20 20 20 19 17 16 16 15 13 12 10 8 7 5 4 3 4 5 5 6 6 7 7 8 9 9 8 7 7 10 12 12 11 11 13 14 14 14 13 11 10 9 8 6 3 2 1 1 1 1 2 3 4 4 4 3
25 24 23 22 22 22 20 21 24 23 21 18 16 14 13 12 10 9 8 5 3 1 2 3 3 3 3 4 5 6 6 5 5 6 7 10 12 12 12 12 14 14 13 13 12 10 9 7 5 5 4 2 1 1 2 1 0 2 3 4 4 4
26 25 23 22 22 21 20 20 23 25 24 21 18 16 15 13 11 10 8 6 5 3 2 3 4 4 3 2 3 4 4 4 4 5 7 11 13 14 13 14 15 15 13 13 11 9 8 6 5 6 4 2 1 1 1 1 1 2 2 1 3 4
27 25 24 24 22 20 20 21 24 26 25 22 20 19 17 15 12 11 9 7 5 5 4 3 4 5 3 0 2 4 4 4 3 3 5 10 13 14 14 14 14 14 13 12 10 8 7 6 6 6 3 1 1 2 1 1 1 2 2 2 0 3
27 25 25 24 22 19 21 24 26 25 22 21 20 19 18 16 14 12 11 9 7 7 7 6 6 8 6 2 2 3 3 3 3 3 3 5 9 12 13 13 12 11 11 10 8 7 7 7 7 6 4 3 1 1 2 2 1 1 2 1 1 1
27 26 24 23 22 21 22 26 27 25 22 21 19 17 17 17 16 15 13 11 10 10 11 10 8 8 7 6 4 3 3 3 4 4 4 4 5 8 10 9 9 9 7 7 7 7 7 7 7 6 4 4 2 2 3 2 1 1 2 1 1 1
28 25 23 22 23 24 25 26 26 23 22 21 19 17 17 18 18 16 15 13 13 13 12 10 9 9 8 8 7 6 5 4 6 6 5 6 8 8 8 6 5 6 5 6 7 8 8 8 8 7 6 4 2 4 4 2 2 1 1 1 1 2
27 24 23 23 25 26 26 27 25 22 20 19 19 19 18 18 17 17 15 14 13 13 12 10 10 10 10 10 11 9 8 7 9 9 9 9 10 10 10 8 7 7 6 5 5 6 8 9 8 9 9 6 3 2 1 1 2 2 2 0 2 2
27 25 26 25 26 26 25 26 24 22 21 20 20 20 20 18 18 17 16 14 13 12 12 11 10 9 10 11 12 11 10 11 12 13 12 12 12 12 12 10 10 10 9 8 6 6 8 7 6 7 8 7 5 3 1 3 2 2 2 2 1 3
27 27 28 27 26 26 24 24 24 25 24 23 23 22 21 20 19 18 17 15 13 12 12 12 11 11 11 12 12 11 10 10 12 13 14 14 14 14 13 11 11 12 12 12 10 10 9 8 7 7 6 6 6 4 3 4 4 2 1 1 1 2
28 29 30 28 28 27 24 23 25 27 27 27 27 25 23 22 21 20 18 17 15 14 13 14 13 13 12 13 11 9 8 9 11 12 12 12 13 13 12 12 12 12 12 12 12 11 11 10 9 10 9 8 7 7 6 6 6 5 3 2 1 1
26 28 30 28 28 28 25 24 26 28 29 29 29 27 26 25 23 22 20 18 18 17 15 15 14 14 13 12 10 9 9 10 11 11 11 11 10 11 10 10 11 12 11 11 11 10 10 10 10 11 11 9 9 8 8 7 6 5 4 3 2 1
23 26 31 29 28 28 25 26 28 28 29 30 29 27 27 26 24 23 21 21 20 19 17 16 15 16 15 13 11 11 11 11 11 11 10 10 9 8 9 9 10 11 11 10 9 8 9 10 9 9 10 9 8 7 7 6 5 4 4 3 3 3
22 26 31 28 26 25 26 28 27 26 29 30 29 27 27 27 25 23 22 22 22 20 18 17 16 17 17 15 14 13 13 11 10 10 9 9 9 9 10 11 11 11 11 10 8 9 10 11 10 9 8 7 7 7 6 5 4 4 4 3 5 6
19 19 22 22 21 22 26 28 25 26 29 29 28 27 27 27 25 23 23 23 21 20 19 18 17 18 17 16 16 14 14 13 11 10 10 9 9 9 10 11 11 11 11 9 9 10 11 11 10 10 9 7 6 5 5 4 3 2 3 3 5 7
20 22 27 29 27 26 29 28 25 26 29 28 28 27 27 28 25 23 23 23 21 20 19 19 18 17 16 15 14 14 15 14 12 10 9 9 8 8 9 11 12 11 11 10 10 11 11 10 10 10 9 9 8 6 5 6 6 4 3 4 4 5
26 27 33 35 34 32 31 28 25 26 29 28 28 28 28 29 27 24 24 22 21 21 20 19 19 18 17 15 14 14 15 15 13 11 10 9 7 6 7 9 10 10 11 10 10 11 10 10 10 8 8 8 8 8 8 9 9 8 7 6 4 4
Wind_Direction
150 151 152 150 150 153 155 157 157 158 158 160 161 161 162 161 163 161 160 161 161 165 166 164 164 163 155 150 148 147 149 150 152 150 147 147 153 157 161 163 152 145 138 131 130 130 120 118 143 156 143 119 87 102 151 156 152 148 145 135 122 110
156 158 160 158 157 157 161 163 163 164 163 164 165 165 166 167 169 167 165 164 164 168 168 168 171 169 162 156 155 157 158 158 158 153 152 154 158 164 165 167 162 155 149 143 144 139 132 133 149 160 147 125 95 103 151 160 157 153 148 137 124 113
163 165 167 166 165 165 168 170 170 172 170 170 171 172 170 172 176 172 169 167 167 170 170 172 174 174 167 164 164 164 165 164 162 157 158 162 168 174 173 175 171 170 168 162 161 149 137 142 155 167 158 140 114 109 150 168 167 161 151 138 126 120
171 173 175 175 176 176 177 179 179 179 178 176 177 177 175 177 179 174 171 171 171 172 175 175 172 176 177 178 180 174 172 172 169 165 165 169 178 180 180 183 184 188 189 182 172 152 135 142 157 170 165 151 128 110 152 174 174 165 149 136 127 126
179 181 183 185 184 185 185 185 185 186 186 183 181 179 178 180 178 175 174 175 177 178 181 178 173 181 188 191 195 190 184 183 184 181 177 180 182 184 185 188 194 198 198 195 183 162 145 139 150 157 151 148 143 111 149 172 171 162 147 131 125 130
186 188 191 191 190 191 192 191 190 191 190 185 184 181 180 181 178 178 180 184 186 186 184 182 181 190 197 198 201 203 197 192 198 201 197 198 191 188 193 195 200 201 200 200 192 180 172 159 157 156 150 155 164 112 159 172 166 157 146 130 124 133
192 194 195 194 195 197 197 198 195 194 194 191 189 187 186 185 185 187 189 193 194 193 189 186 191 202 206 202 204 209 209 207 211 214 212 209 201 200 204 204 205 198 195 194 194 200 205 191 181 175 171 182 192 157 172 175 168 161 148 130 124 131
197 197 196 195 198 202 201 202 199 197 198 197 194 192 193 192 195 200 201 200 198 201 202 197 201 207 207 204 208 215 216 218 221 221 218 212 207 213 214 206 197 187 183 187 199 221 220 201 192 184 179 202 186 163 172 181 176 168 151 132 126 132
200 198 198 197 199 205 205 204 201 201 202 202 199 194 196 201 207 210 208 204 202 209 213 211 212 209 204 203 209 218 220 221 226 228 225 221 217 217 211 200 187 180 181 188 201 212 212 197 187 184 182 205 183 166 168 181 182 177 159 143 135 136
200 199 198 199 202 206 207 207 205 204 206 208 205 197 196 207 215 212 208 206 207 216 221 220 219 212 204 202 209 219 222 223 229 231 227 225 225 218 206 202 197 188 190 197 199 201 209 204 189 195 191 178 177 173 172 174 177 180 167 157 151 147
199 199 198 201 203 205 208 210 209 209 212 213 211 205 203 214 221 215 211 213 214 221 226 225 219 211 203 203 213 219 224 229 231 228 222 219 220 216 204 208 212 199 201 209 207 208 206 196 187 203 198 172 158 163 174 172 171 180 178 170 165 162
199 198 198 200 201 206 209 208 209 212 214 212 212 212 212 218 224 221 219 223 225 226 226 223 218 213 206 206 214 213 216 225 225 217 212 210 212 213 208 214 212 201 212 227 226 224 212 202 200 204 200 186 170 155 172 178 178 183 189 186 182 181
199 197 195 196 197 202 202 200 205 213 214 207 205 209 211 214 220 223 223 223 225 225 222 220 219 219 213 208 208 204 204 209 208 204 204 205 208 213 216 214 203 200 217 227 227 229 216 209 209 204 200 195 185 160 165 180 185 190 194 197 199 198
196 195 192 192 193 192 192 196 201 206 207 205 204 205 206 209 213 219 222 220 221 221 218 219 219 220 217 208 204 202 200 198 197 200 202 204 207 214 215 205 197 200 209 211 208 210 202 197 193 190 188 188 185 173 153 151 156 181 198 202 204 209
187 185 183 181 183 184 187 189 186 185 193 204 209 205 201 204 208 213 218 221 221 221 220 220 220 221 219 211 208 207 204 198 197 204 207 206 208 213 211 203 197 199 201 200 198 192 187 185 179 178 174 166 168 169 166 140 121 147 188 203 206 212
181 177 176 173 173 178 181 176 169 169 179 197 204 202 199 200 205 207 213 218 218 221 223 222 222 222 220 214 213 211 207 202 200 207 212 212 211 211 210 205 202 202 200 199 198 187 179 179 173 168 167 164 163 164 171 154 119 118 151 192 209 217
175 173 172 166 163 166 168 165 164 163 164 181 194 202 204 203 206 209 217 221 221 225 226 221 220 222 219 211 209 210 212 210 206 209 212 210 209 210 211 207 202 204 202 196 191 181 171 173 169 161 160 169 178 189 203 192 152 109 119 148 176 202
160 159 158 156 155 153 153 155 159 156 148 151 169 195 205 207 212 215 222 224 223 226 225 217 214 218 214 206 207 212 214 214 208 206 206 204 203 204 205 202 193 191 194 191 184 176 169 168 168 166 172 180 186 188 211 225 217 187 136 130 131 140
150 150 151 151 150 148 148 154 158 150 141 138 141 153 165 183 198 204 211 215 215 219 224 219 212 213 208 202 208 213 211 211 204 197 199 197 196 198 196 189 182 177 178 180 177 172 166 164 161 162 170 173 179 186 187 277 269 246 225 217 198 162
152 153 152 149 148 150 159 166 165 157 147 141 138 140 142 146 150 152 163 184 201 210 223 223 219 224 220 209 209 211 209 208 202 195 196 194 190 193 189 179 177 174 171 167 163 164 163 160 153 144 146 151 152 182 251 282 295 279 249 232 227 229
154 157 155 154 155 157 165 169 170 169 160 148 143 142 139 139 135 128 128 134 164 193 218 217 216 226 229 228 223 217 212 207 204 202 201 196 192 191 187 181 177 173 170 163 154 153 158 160 150 137 137 152 167 190 204 244 277 280 269 251 225 214
157 159 161 162 164 164 166 165 165 168 164 154 151 148 143 142 140 135 132 131 140 163 238 221 216 211 211 229 228 217 207 200 205 210 203 198 197 194 188 184 180 174 169 166 162 156 159 171 166 159 161 140 137 198 194 181 212 294 281 262 237 212
160 164 167 167 167 165 162 162 162 161 160 155 153 153 149 148 149 147 145 149 162 169 202 225 227 213 197 215 223 207 187 179 187 203 207 201 200 200 192 185 184 182 173 166 168 167 175 193 178 161 150 122 145 147 65 49 74 44 2 312 237 212
166 170 172 170 170 167 160 158 156 156 155 151 150 152 150 150 153 156 156 159 168 170 173 202 213 207 208 234 216 193 173 166 170 185 213 212 208 206 198 188 185 189 184 170 165 169 182 191 175 164 142 89 130 97 76 321 5 44 52 48 126 196
171 174 176 174 175 175 163 153 148 147 147 143 145 150 151 152 152 152 156 159 164 163 151 143 167 191 201 182 153 178 167 146 148 154 183 207 206 203 198 193 190 193 193 184 175 169 175 181 181 186 168 133 97 80 193 233 343 29 50 48 352 216
174 177 180 182 184 181 167 157 151 149 146 142 143 149 155 157 156 153 151 150 150 152 147 134 136 162 183 180 150 149 164 159 157 146 130 135 160 180 188 196 206 208 210 213 203 186 182 185 187 193 183 152 108 115 166 157 110 42 356 346 309 281
178 180 183 184 185 179 168 163 161 160 158 152 149 153 157 155 153 151 147 146 144 144 149 144 131 130 150 163 148 132 134 149 160 152 138 130 129 143 157 167 186 197 207 217 213 203 194 190 190 193 194 180 122 112 125 121 129 120 359 335 325 293
181 180 178 176 176 175 168 165 165 165 164 161 156 154 156 154 152 151 148 146 143 140 143 146 139 128 132 147 145 132 121 120 133 139 142 139 129 129 133 135 144 158 170 184 202 207 192 186 192 196 199 201 190 170 143 91 130 143 128 144 309 327
181 177 173 171 171 170 167 165 166 167 165 164 161 157 158 158 157 157 151 148 148 144 143 144 142 133 131 140 140 133 127 124 126 129 134 135 132 131 130 129 133 137 139 140 147 161 158 160 174 182 191 196 187 184 134 84 106 148 123 110 277 313
181 176 172 170 168 166 164 166 169 169 166 165 163 161 161 160 160 161 155 152 154 153 151 149 144 136 132 135 134 130 130 130 131 130 130 130 130 131 129 126 125 126 128 127 125 125 123 125 135 138 146 158 156 143 99 73 68 82 115 128 200 289
179 175 172 170 169 167 166 171 173 171 168 166 165 164 164 164 165 165 160 156 154 151 149 149 148 142 135 136 138 136 131 131 137 138 135 133 133 133 132 130 128 128 131 130 124 119 112 110 115 117 116 121 122 113 100 89 82 85 93 93 92 306
172 172 170 171 173 171 170 176 177 173 170 168 168 167 166 167 170 168 162 157 153 149 146 146 149 148 142 145 151 146 132 125 129 134 135 136 137 141 144 143 142 140 138 136 131 126 119 111 111 111 108 107 106 105 102 97 93 86 81 83 92 53
167 174 176 178 179 174 174 176 175 174 173 171 172 172 171 171 173 171 166 162 158 155 152 151 152 153 151 153 156 148 136 126 120 121 124 127 128 135 141 141 145 146 144 143 142 141 133 122 119 114 109 107 105 104 99 90 86 85 83 87 82 46
168 177 178 178 179 175 174 173 173 176 176 175 176 178 177 176 177 178 175 170 166 162 159 157 156 155 156 156 154 148 141 133 124 119 119 123 124 125 127 126 129 133 135 139 140 140 135 127 121 115 111 113 106 99 96 88 86 87 80 75 66 42
158 163 167 170 178 181 177 173 174 179 180 181 183 184 183 181 182 186 183 177 172 166 161 160 159 157 156 158 158 154 149 143 137 132 128 128 129 128 127 122 120 119 119 124 130 129 129 127 121 114 107 105 103 101 89 68 58 62 69 77 70 54
170 175 180 183 187 189 183 176 174 179 183 186 187 188 187 184 187 190 185 181 177 170 163 161 161 160 158 159 160 159 157 151 147 145 141 137 131 125 125 122 118 114 107 107 114 117 122 123 116 108 100 88 81 85 77 63 58 60 78 91 81 56
187 187 188 188 189 188 184 177 175 181 188 193 193 192 191 188 191 194 189 184 180 173 168 166 166 164 161 160 159 161 163 159 154 151 148 149 143 131 131 131 128 122 115 111 111 113 119 123 116 106 100 87 75 80 83 74 72 75 80 83 84 61